Torna al catalogo

TAURUS 1

AttivoComunicazioniVLEO
NORAD 66305·PAYLOAD·🇹🇷 Turkey
Questo nome del satellite non è ancora stato confermato da fonti ufficiali.

Lanciato Nov 2, 2025 da Cape Canaveral Space Force Station

Loading…

Prossimi Passaggi (prossime 24 ore)

TLE

AggiornatoSource: Space-Track

Epoca: Sep 14, 2026, 13:02 UTC

1 66305U 25248N   26257.54336436  .00014854  00000-0  50249-3 0  9992
2 66305  45.4210 347.9912 0008484 216.9562 143.0745 15.30546717 46157

Traccia TAURUS 1 in tempo reale con AllMySat

Download on the App Store